| time (UTC) | temp C | wind direction | speed KPH | gust KPH | rain 1hr cm | rain 24hr cm | rain mn cm | humidity % | barometer mb |
| 20260507003945 | 13 | 334 | 3.2 | 8.0 | 0.00 | 0.00 | 0.00 | 63 | 1016.5 |
| 20260507003445 | 13 | 0 | 6.4 | 8.0 | 0.00 | 0.00 | 0.00 | 63 | 1016.5 |
| 20260507002946 | 13 | 0 | 4.8 | 6.4 | 0.00 | 0.00 | 0.00 | 63 | 1016.3 |
| 20260507002705 | 13 | 0 | 4.8 | 6.4 | 0.00 | 0.00 | 0.00 | 63 | 1016.4 |
| 20260507002212 | 13 | 316 | 3.2 | 8.0 | 0.00 | 0.00 | 0.00 | 63 | 1016.5 |
| 20260507001719 | 13 | 0 | 4.8 | 8.0 | 0.00 | 0.00 | 0.00 | 63 | 1016.6 |
| 20260507001213 | 13 | 0 | 4.8 | 6.4 | 0.00 | 0.00 | 0.00 | 63 | 1016.5 |
| 20260507000445 | 13 | 0 | 4.8 | 6.4 | 0.00 | 0.00 | 0.00 | 63 | 1016.5 |
| 20260506235944 | 13 | 0 | 4.8 | 6.4 | 0.00 | 0.00 | 0.00 | 63 | 1016.5 |
| 20260506235445 | 13 | 0 | 3.2 | 6.4 | 0.00 | 0.00 | 0.00 | 63 | 1016.6 |
| 20260506234945 | 13 | 310 | 4.8 | 6.4 | 0.00 | 0.00 | 0.00 | 63 | 1016.5 |
| 20260506234444 | 13 | 320 | 4.8 | 8.0 | 0.00 | 0.00 | 0.00 | 63 | 1016.6 |
| 20260506233944 | 13 | 313 | 4.8 | 8.0 | 0.00 | 0.00 | 0.00 | 63 | 1016.7 |
| 20260506233445 | 13 | 0 | 4.8 | 8.0 | 0.00 | 0.00 | 0.00 | 63 | 1016.8 |
| 20260506233210 | 13 | 317 | 3.2 | 4.8 | 0.00 | 0.00 | 0.00 | 63 | 1016.9 |
| 20260506232444 | 13 | 321 | 4.8 | 4.8 | 0.00 | 0.00 | 0.00 | 63 | 1016.9 |
| 20260506231944 | 14 | 327 | 3.2 | 4.8 | 0.00 | 0.00 | 0.00 | 63 | 1016.9 |
| 20260506231444 | 13 | 316 | 0.0 | 0.0 | 0.00 | 0.00 | 0.00 | 63 | 1017.0 |
| 20260506230943 | 13 | 316 | 0.0 | 0.0 | 0.00 | 0.00 | 0.00 | 63 | 1017.0 |
| 20260506230444 | 14 | 316 | 0.0 | 3.2 | 0.00 | 0.00 | 0.00 | 63 | 1017.0 |
| 20260506225944 | 14 | 316 | 0.0 | 4.8 | 0.00 | 0.00 | 0.00 | 63 | 1017.0 |
| 20260506225443 | 14 | 316 | 3.2 | 4.8 | 0.00 | 0.00 | 0.00 | 63 | 1017.0 |
| 20260506224944 | 14 | 0 | 1.6 | 4.8 | 0.00 | 0.00 | 0.00 | 63 | 1017.2 |
| 20260506224445 | 14 | 290 | 3.2 | 4.8 | 0.00 | 0.00 | 0.00 | 63 | 1017.1 |
| 20260506223943 | 14 | 172 | 0.0 | 3.2 | 0.00 | 0.00 | 0.00 | 63 | 1017.3 |
| 20260506223444 | 14 | 172 | 1.6 | 3.2 | 0.00 | 0.00 | 0.00 | 63 | 1017.3 |
| 20260506222943 | 13 | 172 | 0.0 | 0.0 | 0.00 | 0.00 | 0.00 | 63 | 1017.3 |
| 20260506222442 | 13 | 172 | 0.0 | 0.0 | 0.00 | 0.00 | 0.00 | 63 | 1017.3 |
| 20260506221944 | 14 | 172 | 0.0 | 0.0 | 0.00 | 0.00 | 0.00 | 63 | 1017.3 |
| 20260506221441 | 14 | 172 | 0.0 | 0.0 | 0.00 | 0.00 | 0.00 | 63 | 1017.4 |
| 20260506220941 | 14 | 172 | 0.0 | 0.0 | 0.00 | 0.00 | 0.00 | 63 | 1017.5 |
| 20260506220440 | 14 | 171 | 0.0 | 0.0 | 0.00 | 0.00 | 0.00 | 63 | 1017.5 |
| 20260506215941 | 14 | 171 | 0.0 | 0.0 | 0.00 | 0.00 | 0.00 | 63 | 1017.4 |
| 20260506215441 | 14 | 172 | 0.0 | 0.0 | 0.00 | 0.00 | 0.00 | 63 | 1017.4 |
| 20260506214940 | 14 | 172 | 0.0 | 0.0 | 0.00 | 0.00 | 0.00 | 63 | 1017.4 |
| 20260506214709 | 14 | 172 | 0.0 | 0.0 | 0.00 | 0.00 | 0.00 | 63 | 1017.4 |
| 20260506213941 | 14 | 172 | 0.0 | 0.0 | 0.00 | 0.00 | 0.00 | 63 | 1017.5 |
| 20260506213440 | 14 | 172 | 0.0 | 0.0 | 0.00 | 0.00 | 0.00 | 62 | 1017.4 |
| 20260506212939 | 14 | 172 | 0.0 | 0.0 | 0.00 | 0.00 | 0.00 | 62 | 1017.5 |
| 20260506212440 | 15 | 172 | 0.0 | 0.0 | 0.00 | 0.00 | 0.00 | 63 | 1017.5 |
| 20260506212207 | 15 | 172 | 0.0 | 0.0 | 0.00 | 0.00 | 0.00 | 63 | 1017.6 |
| 20260506211440 | 15 | 171 | 0.0 | 0.0 | 0.00 | 0.00 | 0.00 | 63 | 1017.6 |
| 20260506210939 | 15 | 171 | 0.0 | 0.0 | 0.00 | 0.00 | 0.00 | 63 | 1017.5 |
| 20260506210440 | 15 | 171 | 0.0 | 0.0 | 0.00 | 0.00 | 0.00 | 63 | 1017.5 |
| 20260506205940 | 15 | 171 | 0.0 | 0.0 | 0.00 | 0.00 | 0.00 | 62 | 1017.6 |
| 20260506205439 | 15 | 171 | 0.0 | 0.0 | 0.00 | 0.00 | 0.00 | 62 | 1017.6 |
| 20260506204940 | 15 | 171 | 0.0 | 0.0 | 0.00 | 0.00 | 0.00 | 62 | 1017.5 |
| 20260506204439 | 15 | 171 | 0.0 | 0.0 | 0.00 | 0.00 | 0.00 | 62 | 1017.6 |
| 20260506203939 | 15 | 171 | 0.0 | 0.0 | 0.00 | 0.00 | 0.00 | 62 | 1017.5 |
| 20260506203700 | 15 | 171 | 0.0 | 0.0 | 0.00 | 0.00 | 0.00 | 62 | 1017.5 |
| 20260506203207 | 15 | 171 | 0.0 | 0.0 | 0.00 | 0.00 | 0.00 | 62 | 1017.4 |
| 20260506202441 | 15 | 171 | 0.0 | 0.0 | 0.00 | 0.00 | 0.00 | 62 | 1017.5 |
| 20260506202436 | 15 | 171 | 0.0 | 0.0 | 0.00 | 0.00 | 0.00 | 62 | 1017.4 |
| 20260506201440 | 15 | 171 | 0.0 | 0.0 | 0.00 | 0.00 | 0.00 | 62 | 1017.5 |
| 20260506200938 | 15 | 171 | 0.0 | 0.0 | 0.00 | 0.00 | 0.00 | 62 | 1017.4 |
| 20260506200437 | 15 | 171 | 0.0 | 0.0 | 0.00 | 0.00 | 0.00 | 62 | 1017.3 |
| 20260506195938 | 16 | 171 | 0.0 | 0.0 | 0.00 | 0.00 | 0.00 | 62 | 1017.4 |
| 20260506195437 | 16 | 171 | 0.0 | 1.6 | 0.00 | 0.00 | 0.00 | 62 | 1017.2 |
| 20260506195203 | 16 | 171 | 0.0 | 3.2 | 0.00 | 0.00 | 0.00 | 62 | 1017.3 |
| 20260506194439 | 16 | 171 | 1.6 | 3.2 | 0.00 | 0.00 | 0.00 | 62 | 1017.3 |
| 20260506193939 | 16 | 171 | 0.0 | 4.8 | 0.00 | 0.00 | 0.00 | 62 | 1017.2 |
| 20260506193437 | 16 | 169 | 1.6 | 4.8 | 0.00 | 0.00 | 0.00 | 62 | 1017.2 |
| 20260506192938 | 16 | 172 | 0.0 | 4.8 | 0.00 | 0.00 | 0.00 | 62 | 1017.2 |
| 20260506192436 | 17 | 171 | 1.6 | 4.8 | 0.00 | 0.00 | 0.00 | 62 | 1017.3 |
| 20260506191937 | 16 | 171 | 0.0 | 1.6 | 0.00 | 0.00 | 0.00 | 62 | 1017.2 |
| 20260506191436 | 17 | 172 | 0.0 | 1.6 | 0.00 | 0.00 | 0.00 | 62 | 1017.1 |
| 20260506190936 | 17 | 172 | 0.0 | 0.0 | 0.00 | 0.00 | 0.00 | 61 | 1017.1 |
| 20260506190437 | 17 | 172 | 0.0 | 0.0 | 0.00 | 0.00 | 0.00 | 62 | 1017.0 |
| 20260506185936 | 17 | 172 | 0.0 | 3.2 | 0.00 | 0.00 | 0.00 | 62 | 1017.0 |
| 20260506185437 | 17 | 172 | 0.0 | 4.8 | 0.00 | 0.00 | 0.00 | 61 | 1016.9 |
| 20260506184936 | 18 | 188 | 0.0 | 4.8 | 0.00 | 0.00 | 0.00 | 61 | 1016.9 |
| 20260506184436 | 18 | 0 | 0.0 | 3.2 | 0.00 | 0.00 | 0.00 | 61 | 1016.7 |
| 20260506183933 | 18 | 179 | 0.0 | 3.2 | 0.00 | 0.00 | 0.00 | 61 | 1016.7 |
| 20260506183433 | 18 | 179 | 1.6 | 6.4 | 0.00 | 0.00 | 0.00 | 61 | 1016.6 |
| 20260506182932 | 18 | 185 | 1.6 | 6.4 | 0.00 | 0.00 | 0.00 | 61 | 1016.5 |
| 20260506182433 | 18 | 185 | 3.2 | 6.4 | 0.00 | 0.00 | 0.00 | 61 | 1016.4 |
| 20260506181933 | 18 | 175 | 1.6 | 4.8 | 0.00 | 0.00 | 0.00 | 60 | 1016.4 |
| 20260506181432 | 18 | 171 | 0.0 | 6.4 | 0.00 | 0.00 | 0.00 | 60 | 1016.3 |
| 20260506181420 | 18 | 172 | 1.6 | 6.4 | 0.00 | 0.00 | 0.00 | 59 | 1016.2 |
| 20260506180653 | 18 | 190 | 1.6 | 4.8 | 0.00 | 0.00 | 0.00 | 59 | 1016.1 |
| 20260506175933 | 18 | 192 | 0.0 | 6.4 | 0.00 | 0.00 | 0.00 | 59 | 1016.1 |
| 20260506175432 | 19 | 196 | 3.2 | 8.0 | 0.00 | 0.00 | 0.00 | 59 | 1016.0 |
| 20260506174934 | 19 | 221 | 1.6 | 8.0 | 0.00 | 0.00 | 0.00 | 59 | 1016.0 |
| 20260506174704 | 19 | 230 | 1.6 | 4.8 | 0.00 | 0.00 | 0.00 | 58 | 1016.0 |
| 20260506173909 | 19 | 189 | 0.0 | 4.8 | 0.00 | 0.00 | 0.00 | 58 | 1015.8 |
| 20260506173634 | 19 | 192 | 3.2 | 4.8 | 0.00 | 0.00 | 0.00 | 58 | 1015.9 |
| 20260506172905 | 19 | 190 | 1.6 | 4.8 | 0.00 | 0.00 | 0.00 | 57 | 1015.9 |
| 20260506172405 | 18 | 202 | 1.6 | 4.8 | 0.00 | 0.00 | 0.00 | 57 | 1015.9 |
| 20260506171906 | 18 | 203 | 1.6 | 6.4 | 0.00 | 0.00 | 0.00 | 56 | 1015.9 |
| 20260506171405 | 18 | 230 | 1.6 | 8.0 | 0.00 | 0.00 | 0.00 | 56 | 1015.8 |
| 20260506170858 | 19 | 214 | 6.4 | 9.7 | 0.00 | 0.00 | 0.00 | 55 | 1015.8 |
| 20260506170358 | 19 | 244 | 8.0 | 9.7 | 0.00 | 0.00 | 0.00 | 55 | 1015.8 |
| 20260506170115 | 19 | 0 | 6.4 | 9.7 | 0.00 | 0.00 | 0.00 | 54 | 1015.9 |
| 20260506165353 | 19 | 0 | 4.8 | 8.0 | 0.00 | 0.00 | 0.00 | 53 | 1015.8 |
| 20260506165114 | 19 | 210 | 1.6 | 8.0 | 0.00 | 0.00 | 0.00 | 52 | 1015.9 |
| 20260506164620 | 19 | 223 | 4.8 | 8.0 | 0.00 | 0.00 | 0.00 | 51 | 1015.9 |
| 20260506163852 | 20 | 0 | 3.2 | 8.0 | 0.00 | 0.00 | 0.00 | 50 | 1016.0 |
| 20260506163350 | 19 | 219 | 3.2 | 8.0 | 0.00 | 0.00 | 0.00 | 48 | 1016.0 |
| 20260506162851 | 19 | 203 | 4.8 | 8.0 | 0.00 | 0.00 | 0.00 | 48 | 1016.0 |
| 20260506162351 | 20 | 0 | 6.4 | 8.0 | 0.00 | 0.00 | 0.00 | 49 | 1016.0 |
| 20260506161851 | 20 | 214 | 1.6 | 6.4 | 0.00 | 0.00 | 0.00 | 50 | 1015.9 |
| 20260506161351 | 20 | 195 | 1.6 | 8.0 | 0.00 | 0.00 | 0.00 | 50 | 1016.0 |
| 20260506160847 | 20 | 228 | 3.2 | 9.7 | 0.00 | 0.00 | 0.00 | 50 | 1016.0 |
| 20260506160347 | 20 | 224 | 4.8 | 9.7 | 0.00 | 0.00 | 0.00 | 49 | 1016.0 |
| 20260506155847 | 20 | 203 | 4.8 | 9.7 | 0.00 | 0.00 | 0.00 | 49 | 1015.9 |
| 20260506155348 | 20 | 0 | 3.2 | 9.7 | 0.00 | 0.00 | 0.00 | 48 | 1016.0 |
| 20260506154848 | 20 | 228 | 4.8 | 9.7 | 0.00 | 0.00 | 0.00 | 50 | 1016.0 |
| 20260506154344 | 21 | 0 | 3.2 | 9.7 | 0.00 | 0.00 | 0.00 | 51 | 1016.1 |
| 20260506153843 | 21 | 212 | 4.8 | 9.7 | 0.00 | 0.00 | 0.00 | 52 | 1016.1 |
| 20260506153613 | 21 | 0 | 6.4 | 11.3 | 0.00 | 0.00 | 0.00 | 53 | 1016.1 |
| 20260506153602 | 21 | 223 | 6.4 | 11.3 | 0.00 | 0.00 | 0.00 | 52 | 1016.1 |
| 20260506152344 | 21 | 178 | 6.4 | 11.3 | 0.00 | 0.00 | 0.00 | 53 | 1016.2 |
| 20260506151844 | 21 | 0 | 6.4 | 14.5 | 0.00 | 0.00 | 0.00 | 52 | 1016.2 |
| 20260506151343 | 21 | 272 | 4.8 | 14.5 | 0.00 | 0.00 | 0.00 | 52 | 1016.2 |
| 20260506150841 | 21 | 0 | 4.8 | 16.1 | 0.00 | 0.00 | 0.00 | 52 | 1016.2 |
| 20260506150342 | 21 | 226 | 8.0 | 16.1 | 0.00 | 0.00 | 0.00 | 52 | 1016.3 |
| 20260506145841 | 21 | 193 | 4.8 | 14.5 | 0.00 | 0.00 | 0.00 | 51 | 1016.2 |
| 20260506145337 | 21 | 189 | 4.8 | 14.5 | 0.00 | 0.00 | 0.00 | 50 | 1016.3 |
| 20260506145101 | 21 | 172 | 6.4 | 17.7 | 0.00 | 0.00 | 0.00 | 50 | 1016.3 |
| 20260506144337 | 22 | 189 | 6.4 | 17.7 | 0.00 | 0.00 | 0.00 | 48 | 1016.3 |
| 20260506143835 | 22 | 226 | 6.4 | 14.5 | 0.00 | 0.00 | 0.00 | 47 | 1016.3 |
| 20260506143336 | 22 | 173 | 8.0 | 14.5 | 0.00 | 0.00 | 0.00 | 47 | 1016.4 |
| 20260506142836 | 22 | 0 | 8.0 | 14.5 | 0.00 | 0.00 | 0.00 | 48 | 1016.4 |
| 20260506142333 | 22 | 305 | 6.4 | 14.5 | 0.00 | 0.00 | 0.00 | 49 | 1016.4 |
| 20260506141833 | 21 | 175 | 4.8 | 17.7 | 0.00 | 0.00 | 0.00 | 50 | 1016.5 |
| 20260506141333 | 21 | 196 | 8.0 | 17.7 | 0.00 | 0.00 | 0.00 | 48 | 1016.5 |
| 20260506140833 | 21 | 0 | 6.4 | 16.1 | 0.00 | 0.00 | 0.00 | 48 | 1016.4 |
| 20260506140331 | 22 | 0 | 4.8 | 16.1 | 0.00 | 0.00 | 0.00 | 49 | 1016.4 |
| 20260506140311 | 21 | 171 | 4.8 | 16.1 | 0.00 | 0.00 | 0.00 | 49 | 1016.5 |
| 20260506135331 | 21 | 0 | 9.7 | 17.7 | 0.00 | 0.00 | 0.00 | 49 | 1016.5 |
| 20260506134831 | 21 | 204 | 6.4 | 17.7 | 0.00 | 0.00 | 0.00 | 49 | 1016.5 |
| 20260506134333 | 21 | 0 | 9.7 | 17.7 | 0.00 | 0.00 | 0.00 | 48 | 1016.6 |
| 20260506133831 | 21 | 0 | 8.0 | 16.1 | 0.00 | 0.00 | 0.00 | 48 | 1016.7 |
| 20260506133330 | 21 | 0 | 8.0 | 16.1 | 0.00 | 0.00 | 0.00 | 47 | 1016.6 |
| 20260506132830 | 21 | 0 | 9.7 | 14.5 | 0.00 | 0.00 | 0.00 | 47 | 1016.6 |
| 20260506132332 | 21 | 0 | 9.7 | 17.7 | 0.00 | 0.00 | 0.00 | 46 | 1016.6 |
| 20260506132054 | 21 | 141 | 8.0 | 17.7 | 0.00 | 0.00 | 0.00 | 47 | 1016.6 |
| 20260506131330 | 21 | 0 | 8.0 | 17.7 | 0.00 | 0.00 | 0.00 | 46 | 1016.6 |
| 20260506131051 | 21 | 0 | 8.0 | 14.5 | 0.00 | 0.00 | 0.00 | 47 | 1016.7 |
| 20260506130815 | 21 | 0 | 9.7 | 16.1 | 0.00 | 0.00 | 0.00 | 47 | 1016.6 |
| 20260506125829 | 21 | 197 | 9.7 | 17.7 | 0.00 | 0.00 | 0.00 | 46 | 1016.6 |
| 20260506125548 | 21 | 0 | 9.7 | 17.7 | 0.00 | 0.00 | 0.00 | 46 | 1016.7 |
| 20260506124826 | 21 | 0 | 11.3 | 16.1 | 0.00 | 0.00 | 0.00 | 46 | 1016.7 |
| 20260506124327 | 21 | 0 | 9.7 | 17.7 | 0.00 | 0.00 | 0.00 | 46 | 1016.7 |
| 20260506124312 | 21 | 155 | 11.3 | 19.3 | 0.00 | 0.00 | 0.00 | 46 | 1016.8 |
| 20260506123323 | 21 | 0 | 11.3 | 19.3 | 0.00 | 0.00 | 0.00 | 46 | 1016.8 |
| 20260506122824 | 21 | 0 | 12.9 | 19.3 | 0.00 | 0.00 | 0.00 | 45 | 1016.8 |
| 20260506122322 | 21 | 0 | 11.3 | 19.3 | 0.00 | 0.00 | 0.00 | 46 | 1016.9 |
| 20260506121823 | 21 | 134 | 12.9 | 19.3 | 0.00 | 0.00 | 0.00 | 45 | 1016.9 |
| 20260506121321 | 21 | 0 | 11.3 | 17.7 | 0.00 | 0.00 | 0.00 | 46 | 1017.0 |
| 20260506120819 | 21 | 0 | 12.9 | 20.9 | 0.00 | 0.00 | 0.00 | 48 | 1017.0 |
| 20260506120540 | 21 | 0 | 14.5 | 20.9 | 0.00 | 0.00 | 0.00 | 47 | 1017.1 |
| 20260506115820 | 21 | 0 | 11.3 | 19.3 | 0.00 | 0.00 | 0.00 | 49 | 1017.1 |
| 20260506115318 | 21 | 0 | 9.7 | 20.9 | 0.00 | 0.00 | 0.00 | 49 | 1017.1 |
| 20260506114818 | 21 | 0 | 11.3 | 20.9 | 0.00 | 0.00 | 0.00 | 49 | 1017.2 |
| 20260506114542 | 21 | 0 | 9.7 | 19.3 | 0.00 | 0.00 | 0.00 | 51 | 1017.2 |
| 20260506113815 | 21 | 196 | 12.9 | 19.3 | 0.00 | 0.00 | 0.00 | 50 | 1017.3 |
| 20260506113315 | 21 | 0 | 12.9 | 20.9 | 0.00 | 0.00 | 0.00 | 52 | 1017.2 |
| 20260506112815 | 21 | 0 | 11.3 | 20.9 | 0.00 | 0.00 | 0.00 | 52 | 1017.2 |
| 20260506112806 | 21 | 0 | 9.7 | 19.3 | 0.00 | 0.00 | 0.00 | 53 | 1017.2 |
| 20260506111815 | 21 | 0 | 11.3 | 22.5 | 0.00 | 0.00 | 0.00 | 54 | 1017.2 |
| 20260506111315 | 21 | 219 | 11.3 | 22.5 | 0.00 | 0.00 | 0.00 | 54 | 1017.1 |
| 20260506110813 | 21 | 0 | 9.7 | 22.5 | 0.00 | 0.00 | 0.00 | 53 | 1017.2 |
| 20260506110313 | 21 | 0 | 11.3 | 22.5 | 0.00 | 0.00 | 0.00 | 53 | 1017.2 |
| 20260506105812 | 21 | 0 | 9.7 | 19.3 | 0.00 | 0.00 | 0.00 | 53 | 1017.1 |
| 20260506105309 | 21 | 251 | 8.0 | 19.3 | 0.00 | 0.00 | 0.00 | 52 | 1017.1 |
| 20260506105042 | 21 | 0 | 8.0 | 19.3 | 0.00 | 0.00 | 0.00 | 52 | 1017.1 |
| 20260506104311 | 21 | 0 | 11.3 | 19.3 | 0.00 | 0.00 | 0.00 | 50 | 1017.2 |
| 20260506104038 | 21 | 155 | 8.0 | 17.7 | 0.00 | 0.00 | 0.00 | 51 | 1017.1 |
| 20260506103311 | 21 | 0 | 8.0 | 16.1 | 0.00 | 0.00 | 0.00 | 51 | 1017.2 |
| 20260506103031 | 21 | 0 | 8.0 | 19.3 | 0.00 | 0.00 | 0.00 | 52 | 1017.2 |
| 20260506102306 | 21 | 171 | 11.3 | 19.3 | 0.00 | 0.00 | 0.00 | 49 | 1017.2 |
| 20260506101805 | 21 | 0 | 12.9 | 20.9 | 0.00 | 0.00 | 0.00 | 46 | 1017.3 |
| 20260506101311 | 21 | 0 | 12.9 | 22.5 | 0.00 | 0.00 | 0.00 | 50 | 1017.3 |
| 20260506101307 | 21 | 0 | 9.7 | 22.5 | 0.00 | 0.00 | 0.00 | 51 | 1017.3 |
| 20260506100309 | 21 | 185 | 12.9 | 22.5 | 0.00 | 0.00 | 0.00 | 49 | 1017.2 |
| 20260506095805 | 20 | 0 | 12.9 | 22.5 | 0.00 | 0.00 | 0.00 | 51 | 1017.2 |
| 20260506095307 | 20 | 164 | 11.3 | 24.1 | 0.00 | 0.00 | 0.00 | 50 | 1017.1 |
| 20260506094806 | 20 | 0 | 16.1 | 24.1 | 0.00 | 0.00 | 0.00 | 50 | 1017.1 |
| 20260506094305 | 20 | 175 | 14.5 | 24.1 | 0.00 | 0.00 | 0.00 | 52 | 1017.2 |
| 20260506093805 | 21 | 179 | 14.5 | 24.1 | 0.00 | 0.00 | 0.00 | 51 | 1017.2 |
| 20260506093526 | 21 | 190 | 14.5 | 25.7 | 0.00 | 0.00 | 0.00 | 49 | 1017.2 |
| 20260506092803 | 21 | 0 | 9.7 | 25.7 | 0.00 | 0.00 | 0.00 | 49 | 1017.2 |
| 20260506092300 | 21 | 0 | 12.9 | 24.1 | 0.00 | 0.00 | 0.00 | 50 | 1017.0 |
| 20260506092242 | 21 | 0 | 12.9 | 24.1 | 0.00 | 0.00 | 0.00 | 49 | 1017.1 |
| 20260506091300 | 21 | 0 | 11.3 | 20.9 | 0.00 | 0.00 | 0.00 | 48 | 1017.2 |
| 20260506090755 | 21 | 0 | 9.7 | 20.9 | 0.00 | 0.00 | 0.00 | 49 | 1017.0 |
| 20260506090255 | 21 | 0 | 8.0 | 17.7 | 0.00 | 0.00 | 0.00 | 48 | 1017.0 |
| 20260506085755 | 21 | 173 | 8.0 | 25.7 | 0.00 | 0.00 | 0.00 | 48 | 1016.9 |
| 20260506085253 | 21 | 168 | 8.0 | 25.7 | 0.00 | 0.00 | 0.00 | 47 | 1017.0 |
| 20260506084756 | 21 | 230 | 6.4 | 19.3 | 0.00 | 0.00 | 0.00 | 51 | 1017.0 |
| 20260506084255 | 21 | 164 | 8.0 | 20.9 | 0.00 | 0.00 | 0.00 | 50 | 1017.0 |
| 20260506084018 | 21 | 0 | 9.7 | 20.9 | 0.00 | 0.00 | 0.00 | 52 | 1017.0 |
| 20260506083743 | 20 | 0 | 9.7 | 20.9 | 0.00 | 0.00 | 0.00 | 49 | 1016.9 |
| 20260506082738 | 20 | 219 | 11.3 | 20.9 | 0.00 | 0.00 | 0.00 | 50 | 1016.9 |
| 20260506082237 | 20 | 0 | 9.7 | 20.9 | 0.00 | 0.00 | 0.00 | 52 | 1016.9 |
| 20260506082029 | 20 | 169 | 9.7 | 22.5 | 0.00 | 0.00 | 0.00 | 52 | 1016.8 |
| 20260506082024 | 20 | 213 | 11.3 | 22.5 | 0.00 | 0.00 | 0.00 | 51 | 1017.0 |
| 20260506082020 | 20 | 0 | 9.7 | 22.5 | 0.00 | 0.00 | 0.00 | 53 | 1016.9 |
| 20260506081339 | 20 | 169 | 9.7 | 22.5 | 0.00 | 0.00 | 0.00 | 52 | 1016.8 |
| 20260506081256 | 20 | 0 | 9.7 | 22.5 | 0.00 | 0.00 | 0.00 | 53 | 1016.9 |
| 20260506081112 | 20 | 169 | 9.7 | 22.5 | 0.00 | 0.00 | 0.00 | 52 | 1016.8 |
| 20260506080841 | 20 | 169 | 9.7 | 22.5 | 0.00 | 0.00 | 0.00 | 52 | 1016.8 |
| 20260506080234 | 20 | 165 | 9.7 | 17.7 | 0.00 | 0.00 | 0.00 | 53 | 1016.8 |
| 20260506073229 | 20 | 175 | 6.4 | 17.7 | 0.00 | 0.00 | 0.00 | 53 | 1016.7 |
| 20260506072727 | 19 | 0 | 9.7 | 22.5 | 0.00 | 0.00 | 0.00 | 54 | 1016.6 |
| 20260506072224 | 19 | 0 | 11.3 | 22.5 | 0.00 | 0.00 | 0.00 | 55 | 1016.6 |
| 20260506071722 | 19 | 183 | 6.4 | 17.7 | 0.00 | 0.00 | 0.00 | 56 | 1016.5 |
| 20260506071222 | 19 | 0 | 8.0 | 17.7 | 0.00 | 0.00 | 0.00 | 57 | 1016.5 |
| 20260506070733 | 18 | 0 | 8.0 | 16.1 | 0.00 | 0.00 | 0.00 | 58 | 1016.5 |
| 20260506070222 | 19 | 0 | 9.7 | 14.5 | 0.00 | 0.00 | 0.00 | 58 | 1016.5 |
| 20260506062221 | 18 | 0 | 4.8 | 9.7 | 0.00 | 0.00 | 0.00 | 58 | 1016.4 |
| 20260506061941 | 18 | 0 | 6.4 | 9.7 | 0.00 | 0.00 | 0.00 | 58 | 1016.3 |
| 20260506061220 | 18 | 206 | 4.8 | 9.7 | 0.00 | 0.00 | 0.00 | 58 | 1016.3 |
| 20260506060721 | 19 | 206 | 6.4 | 9.7 | 0.00 | 0.00 | 0.00 | 58 | 1016.3 |
| 20260506060221 | 19 | 0 | 4.8 | 9.7 | 0.00 | 0.00 | 0.00 | 58 | 1016.2 |
| 20260506051219 | 17 | 120 | 3.2 | 4.8 | 0.00 | 0.00 | 0.00 | 47 | 1016.1 |
| 20260506050719 | 16 | 116 | 3.2 | 4.8 | 0.00 | 0.00 | 0.00 | 48 | 1016.0 |
| 20260506050219 | 16 | 107 | 3.2 | 4.8 | 0.00 | 0.00 | 0.00 | 50 | 1016.0 |
| 20260506044718 | 14 | 312 | 1.6 | 4.8 | 0.00 | 0.00 | 0.00 | 52 | 1015.9 |
| 20260506044218 | 13 | 313 | 3.2 | 4.8 | 0.00 | 0.00 | 0.00 | 52 | 1015.8 |
| 20260506043719 | 13 | 32 | 0.0 | 3.2 | 0.00 | 0.00 | 0.00 | 53 | 1015.7 |
| 20260506043218 | 13 | 32 | 1.6 | 3.2 | 0.00 | 0.00 | 0.00 | 53 | 1015.7 |
| 20260506042718 | 12 | 319 | 1.6 | 4.8 | 0.00 | 0.00 | 0.00 | 53 | 1015.7 |
| 20260506042219 | 12 | 299 | 0.0 | 6.4 | 0.00 | 0.00 | 0.00 | 53 | 1015.6 |
| 20260506041717 | 12 | 299 | 4.8 | 6.4 | 0.00 | 0.00 | 0.00 | 54 | 1015.5 |
| 20260506041218 | 12 | 0 | 0.0 | 4.8 | 0.00 | 0.00 | 0.00 | 54 | 1015.6 |
| 20260506040951 | 11 | 0 | 4.8 | 6.4 | 0.00 | 0.00 | 0.00 | 55 | 1015.5 |
| 20260506040217 | 11 | 296 | 3.2 | 6.4 | 0.00 | 0.00 | 0.00 | 54 | 1015.5 |
| 20260506035941 | 11 | 309 | 3.2 | 6.4 | 0.00 | 0.00 | 0.00 | 53 | 1015.4 |
| 20260506035705 | 11 | 314 | 4.8 | 6.4 | 0.00 | 0.00 | 0.00 | 54 | 1015.5 |
| 20260506034719 | 11 | 0 | 4.8 | 6.4 | 0.00 | 0.00 | 0.00 | 54 | 1015.5 |
| 20260506034218 | 11 | 312 | 3.2 | 6.4 | 0.00 | 0.00 | 0.00 | 54 | 1015.6 |
| 20260506033718 | 11 | 0 | 4.8 | 6.4 | 0.00 | 0.00 | 0.00 | 54 | 1015.5 |
| 20260506033217 | 11 | 0 | 4.8 | 8.0 | 0.00 | 0.00 | 0.00 | 55 | 1015.5 |
| 20260506032717 | 11 | 0 | 3.2 | 8.0 | 0.00 | 0.00 | 0.00 | 54 | 1015.4 |
| 20260506032217 | 11 | 0 | 6.4 | 8.0 | 0.00 | 0.00 | 0.00 | 53 | 1015.5 |
| 20260506031716 | 11 | 309 | 4.8 | 8.0 | 0.00 | 0.00 | 0.00 | 53 | 1015.5 |
| 20260506031216 | 11 | 0 | 4.8 | 8.0 | 0.00 | 0.00 | 0.00 | 53 | 1015.4 |
| 20260506030716 | 11 | 0 | 6.4 | 8.0 | 0.00 | 0.00 | 0.00 | 53 | 1015.3 |
| 20260506030447 | 11 | 0 | 6.4 | 8.0 | 0.00 | 0.00 | 0.00 | 52 | 1015.3 |
| 20260506025716 | 11 | 0 | 0.0 | 6.4 | 0.00 | 0.00 | 0.00 | 52 | 1015.3 |
| 20260506025215 | 11 | 329 | 3.2 | 8.0 | 0.00 | 0.00 | 0.00 | 53 | 1015.3 |
| 20260506024717 | 11 | 324 | 6.4 | 8.0 | 0.00 | 0.00 | 0.00 | 53 | 1015.3 |
| 20260506024216 | 11 | 0 | 6.4 | 8.0 | 0.00 | 0.00 | 0.00 | 52 | 1015.2 |
| 20260506023716 | 11 | 0 | 6.4 | 8.0 | 0.00 | 0.00 | 0.00 | 53 | 1015.3 |
| 20260506023216 | 11 | 316 | 4.8 | 8.0 | 0.00 | 0.00 | 0.00 | 53 | 1015.3 |
| 20260506022717 | 11 | 313 | 6.4 | 9.7 | 0.00 | 0.00 | 0.00 | 53 | 1015.3 |
| 20260506022216 | 11 | 353 | 6.4 | 9.7 | 0.00 | 0.00 | 0.00 | 54 | 1015.4 |
| 20260506021717 | 11 | 357 | 4.8 | 8.0 | 0.00 | 0.00 | 0.00 | 53 | 1015.4 |
| 20260506021215 | 11 | 0 | 6.4 | 8.0 | 0.00 | 0.00 | 0.00 | 53 | 1015.3 |
| 20260506020717 | 11 | 0 | 6.4 | 8.0 | 0.00 | 0.00 | 0.00 | 53 | 1015.3 |
| 20260506020214 | 11 | 0 | 6.4 | 6.4 | 0.00 | 0.00 | 0.00 | 54 | 1015.3 |
| 20260506015715 | 11 | 309 | 6.4 | 6.4 | 0.00 | 0.00 | 0.00 | 53 | 1015.4 |
| 20260506015214 | 11 | 0 | 4.8 | 8.0 | 0.00 | 0.00 | 0.00 | 53 | 1015.3 |
| 20260506014714 | 11 | 341 | 3.2 | 8.0 | 0.00 | 0.00 | 0.00 | 53 | 1015.3 |
| 20260506014216 | 11 | 0 | 3.2 | 8.0 | 0.00 | 0.00 | 0.00 | 53 | 1015.4 |
| 20260506013714 | 11 | 0 | 8.0 | 8.0 | 0.00 | 0.00 | 0.00 | 53 | 1015.4 |
| 20260506013214 | 11 | 0 | 6.4 | 8.0 | 0.00 | 0.00 | 0.00 | 53 | 1015.3 |
| 20260506012713 | 11 | 0 | 6.4 | 8.0 | 0.00 | 0.00 | 0.00 | 53 | 1015.3 |
| 20260506012214 | 11 | 0 | 6.4 | 8.0 | 0.00 | 0.00 | 0.00 | 53 | 1015.4 |
| 20260506011715 | 11 | 0 | 6.4 | 8.0 | 0.00 | 0.00 | 0.00 | 53 | 1015.4 |
| 20260506011215 | 11 | 0 | 6.4 | 8.0 | 0.00 | 0.00 | 0.00 | 53 | 1015.4 |
| 20260506010713 | 11 | 0 | 6.4 | 9.7 | 0.00 | 0.00 | 0.00 | 53 | 1015.4 |
| 20260506010215 | 11 | 314 | 6.4 | 9.7 | 0.00 | 0.00 | 0.00 | 53 | 1015.3 |
| 20260506005713 | 11 | 0 | 6.4 | 8.0 | 0.00 | 0.00 | 0.00 | 53 | 1015.4 |
| 20260506005213 | 11 | 0 | 4.8 | 8.0 | 0.00 | 0.00 | 0.00 | 53 | 1015.3 |
| 20260506004713 | 11 | 0 | 6.4 | 8.0 | 0.00 | 0.00 | 0.00 | 53 | 1015.3 |